Time,TemperatureF,DewpointF,PressureIn,WindDirection,WindDirectionDegrees,WindSpeedMPH,WindSpeedGustMPH,Humidity,HourlyPrecipIn,Conditions,Clouds,dailyrainin,SoftwareType,DateUTC
2015-03-06 00:22:00,13.0,5.0,-100.00,SSE,150,8.0,11.0,70,0.00,,,-99.99,,2015-03-06 06:22:00,
2015-03-06 00:42:00,13.0,5.0,-100.00,SSE,150,7.0,10.0,70,0.00,,,-99.99,,2015-03-06 06:42:00,
2015-03-06 01:22:00,14.0,6.0,-100.00,SSE,160,8.0,12.0,67,0.00,,,-99.99,,2015-03-06 07:22:00,
2015-03-06 01:42:00,15.0,6.0,-100.00,SSE,160,8.0,12.0,66,0.00,,,-99.99,,2015-03-06 07:42:00,
2015-03-06 02:22:00,16.0,6.0,-100.00,SSE,155,11.0,16.0,63,0.00,,,-99.99,,2015-03-06 08:22:00,
2015-03-06 02:42:00,17.0,7.0,-100.00,SSE,165,11.0,18.0,63,0.00,,,-99.99,,2015-03-06 08:42:00,
2015-03-06 03:22:00,18.0,7.0,-100.00,South,170,11.0,14.0,63,0.00,,,-99.99,,2015-03-06 09:22:00,
2015-03-06 03:43:00,18.0,8.0,-100.00,SSE,165,9.0,14.0,63,0.00,,,-99.99,,2015-03-06 09:43:00,
2015-03-06 04:23:00,20.0,10.0,-100.00,South,170,12.0,15.0,63,0.00,,,-99.99,,2015-03-06 10:23:00,
2015-03-06 04:43:00,20.0,10.0,-100.00,South,180,11.0,16.0,63,0.00,,,-99.99,,2015-03-06 10:43:00,
2015-03-06 05:22:00,22.0,11.0,-100.00,South,190,11.0,17.0,63,0.00,,,-99.99,,2015-03-06 11:22:00,
2015-03-06 05:42:00,22.0,11.0,-100.00,SSW,195,9.0,13.0,64,0.00,,,-99.99,,2015-03-06 11:42:00,
2015-03-06 06:22:00,22.0,12.0,-100.00,South,190,9.0,14.0,65,0.00,,,-99.99,,2015-03-06 12:22:00,
2015-03-06 06:42:00,22.0,13.0,-100.00,SSW,195,11.0,16.0,65,0.00,,,-99.99,,2015-03-06 12:42:00,
2015-03-06 07:22:00,22.0,13.0,-100.00,SSW,210,12.0,17.0,66,0.00,,,-99.99,,2015-03-06 13:22:00,
2015-03-06 07:42:00,23.0,13.0,-100.00,SSW,195,12.0,17.0,66,0.00,,,-99.99,,2015-03-06 13:42:00,
2015-03-06 08:22:00,24.0,14.0,-100.00,SSW,205,12.0,18.0,66,0.00,,,-99.99,,2015-03-06 14:22:00,
2015-03-06 08:42:00,24.0,15.0,-100.00,SW,215,12.0,17.0,66,0.00,,,-99.99,,2015-03-06 14:42:00,
2015-03-06 09:22:00,27.0,16.0,-100.00,SW,225,12.0,15.0,63,0.00,,,-99.99,,2015-03-06 15:22:00,
2015-03-06 09:43:00,29.0,18.0,-100.00,SW,235,9.0,14.0,62,0.00,,,-99.99,,2015-03-06 15:43:00,
2015-03-06 10:23:00,33.0,19.0,-100.00,WSW,250,8.0,12.0,57,0.00,,,-99.99,,2015-03-06 16:23:00,
2015-03-06 10:43:00,35.0,19.0,-100.00,SW,235,11.0,13.0,53,0.00,,,-99.99,,2015-03-06 16:43:00,
2015-03-06 11:23:00,38.0,20.0,-100.00,SW,225,6.0,12.0,46,0.00,,,-99.99,,2015-03-06 17:23:00,
2015-03-06 11:43:00,40.0,20.0,-100.00,WSW,245,9.0,12.0,44,0.00,,,-99.99,,2015-03-06 17:43:00,
2015-03-06 12:22:00,43.0,20.0,-100.00,WSW,245,8.0,12.0,40,0.00,,,-99.99,,2015-03-06 18:22:00,
2015-03-06 12:43:00,44.0,21.0,-100.00,SW,220,9.0,13.0,39,0.00,,,-99.99,,2015-03-06 18:43:00,
2015-03-06 13:23:00,47.0,22.0,-100.00,SW,235,9.0,14.0,37,0.00,,,-99.99,,2015-03-06 19:23:00,
2015-03-06 13:43:00,49.0,22.0,-100.00,WSW,245,9.0,14.0,35,0.00,,,-99.99,,2015-03-06 19:43:00,
2015-03-06 14:21:00,51.0,23.0,-100.00,SW,225,9.0,13.0,33,0.00,,,-99.99,,2015-03-06 20:21:00,
2015-03-06 14:41:00,51.0,22.0,-100.00,WSW,240,11.0,17.0,31,0.00,,,-99.99,,2015-03-06 20:41:00,
2015-03-06 15:22:00,53.0,22.0,-100.00,WSW,245,9.0,16.0,29,0.00,,,-99.99,,2015-03-06 21:22:00,
2015-03-06 15:43:00,53.0,22.0,-100.00,WSW,250,12.0,16.0,29,0.00,,,-99.99,,2015-03-06 21:43:00,
2015-03-06 16:22:00,53.0,23.0,-100.00,WSW,245,11.0,14.0,29,0.00,,,-99.99,,2015-03-06 22:22:00,
2015-03-06 16:43:00,54.0,24.0,-100.00,SW,235,9.0,16.0,29,0.00,,,-99.99,,2015-03-06 22:43:00,